TimeCDT,TemperatureF,Dew PointF,Humidity,Sea Level PressureIn,VisibilityMPH,Wind Direction,Wind SpeedMPH,Gust SpeedMPH,PrecipitationIn,Events,Conditions,WindDirDegrees,DateUTC
12:53 AM,39.0,28.0,65,30.19,10.0,Calm,Calm,-,N/A,,Clear,0,2013-03-28 05:53:00
1:53 AM,35.1,27.0,72,30.19,10.0,Calm,Calm,-,N/A,,Clear,0,2013-03-28 06:53:00
2:53 AM,33.1,27.0,78,30.20,9.0,SW,4.6,-,N/A,,Clear,230,2013-03-28 07:53:00
3:53 AM,28.9,24.1,82,30.19,8.0,East,3.5,-,N/A,,Clear,90,2013-03-28 08:53:00
4:53 AM,32.0,27.0,82,30.18,8.0,Calm,Calm,-,N/A,,Scattered Clouds,0,2013-03-28 09:53:00
5:53 AM,28.9,25.0,85,30.16,7.0,Calm,Calm,-,N/A,,Clear,0,2013-03-28 10:53:00
6:53 AM,25.0,21.9,88,30.15,5.0,ENE,5.8,-,N/A,,Clear,60,2013-03-28 11:53:00
7:53 AM,27.0,24.1,89,30.19,5.0,WNW,3.5,-,N/A,,Clear,300,2013-03-28 12:53:00
8:53 AM,32.0,28.0,85,30.19,5.0,SE,3.5,-,N/A,,Clear,130,2013-03-28 13:53:00
9:53 AM,39.9,30.9,70,30.20,7.0,Calm,Calm,-,N/A,,Clear,0,2013-03-28 14:53:00
10:53 AM,46.0,32.0,58,30.19,9.0,SE,3.5,-,N/A,,Clear,140,2013-03-28 15:53:00
11:53 AM,54.0,28.9,38,30.17,10.0,SSE,12.7,16.1,N/A,,Unknown,150,2013-03-28 16:53:00
12:53 PM,59.0,30.0,33,30.14,10.0,South,18.4,24.2,N/A,,Partly Cloudy,180,2013-03-28 17:53:00
1:53 PM,61.0,30.0,31,30.12,10.0,South,16.1,23.0,N/A,,Clear,180,2013-03-28 18:53:00
2:53 PM,64.0,28.9,27,30.11,10.0,SSE,12.7,20.7,N/A,,Clear,160,2013-03-28 19:53:00
3:53 PM,66.0,30.9,27,30.08,10.0,South,13.8,-,N/A,,Clear,170,2013-03-28 20:53:00
4:53 PM,66.0,30.9,27,30.06,10.0,South,10.4,-,N/A,,Clear,170,2013-03-28 21:53:00
5:53 PM,66.0,30.9,27,30.05,10.0,South,12.7,-,N/A,,Clear,190,2013-03-28 22:53:00
6:53 PM,64.9,30.9,28,30.07,10.0,South,9.2,-,N/A,,Clear,190,2013-03-28 23:53:00
7:53 PM,57.9,32.0,37,30.09,10.0,South,6.9,-,N/A,,Clear,180,2013-03-29 00:53:00
8:53 PM,54.0,32.0,43,30.11,10.0,South,4.6,-,N/A,,Clear,170,2013-03-29 01:53:00
9:53 PM,50.0,32.0,50,30.13,10.0,SE,10.4,-,N/A,,Clear,140,2013-03-29 02:53:00
10:53 PM,48.0,32.0,54,30.14,10.0,SE,9.2,-,N/A,,Clear,140,2013-03-29 03:53:00
11:53 PM,46.0,30.9,56,30.14,10.0,SE,9.2,-,N/A,,Clear,140,2013-03-29 04:53:00